Dallesport, WA

4:52 AM PST on December 04, 2016 (GMT -0800)
Columbia Gorge Regional-The Dalles

Weather History for KDLS - March, 2012

Change the Weather History Date:

Friday, March 9, 2012

  Actual Average Record
Temperature  
Mean Temperature 48 °F -  
Max Temperature 66 °F 56 °F 75 °F (2005)
Min Temperature 30 °F 36 °F 25 °F (1970)
Degree Days  
Heating Degree Days 17    
Moisture  
Dew Point 31 °F    
Average Humidity 53    
Maximum Humidity 85    
Minimum Humidity 26    
Precipitation  
Precipitation 0.00 in - - ()
Sea Level Pressure  
Sea Level Pressure 30.13 in    
Wind  
Wind Speed 7 mph (NW)    
Max Wind Speed 17 mph    
Max Gust Speed 26 mph    
Visibility 10 miles    
Events      
Averages and records for this station are not official NWS values.
T = Trace of Precipitation, MM = Missing Value Source: NWS Daily Summary

Daily Weather History Graph

Daily Weather History Graph

Search for Another Location

Airport or City:

Trip Planner

Search our weather history database for the weather conditions in past years. The results will help you decide how hot, cold, wet, or windy it might be!

Date:

Astronomy

Mar. 09, 2012 Rise Set
Actual Time 6:27 AM PST 6:03 PM PST
Civil Twilight 5:57 AM PST 6:32 PM PST
Nautical Twilight 5:23 AM PST 7:07 PM PST
Astronomical Twilight 4:48 AM PST 7:42 PM PST
Moon 8:19 PM PST (3/9) 6:41 AM PST (3/9)
Length of Visible Light 12h 35m
Length of Day
11h 35m
Full, 97% of the Moon is Illuminated
Mar 9
Full
Mar 14
Last Quarter
Mar 22
New
Mar 30
First Quarter
Apr 6
Full

Hourly Weather History & Observations

Time (PST) Temp. Windchill Dew Point Humidity Pressure Visibility Wind Dir Wind Speed Gust Speed Precip Events Conditions
12:53 AM 36.0 °F 32.1 °F 28.9 °F 76% 30.29 in 10.0 mi ESE 4.6 mph - N/A   Clear
1:53 AM 36.0 °F 31.1 °F 28.9 °F 76% 30.29 in 10.0 mi ESE 5.8 mph - N/A   Clear
2:53 AM 33.1 °F 30.0 °F 28.0 °F 82% 30.27 in 10.0 mi ESE 3.5 mph - N/A   Clear
3:53 AM 35.1 °F - 30.0 °F 82% 30.27 in 10.0 mi Calm Calm - N/A   Clear
4:53 AM 32.0 °F 26.4 °F 27.0 °F 82% 30.27 in 10.0 mi East 5.8 mph - N/A   Clear
5:53 AM 30.9 °F 26.2 °F 27.0 °F 85% 30.27 in 10.0 mi ESE 4.6 mph - N/A   Clear
7:53 AM 36.0 °F - 30.0 °F 79% 30.27 in 10.0 mi Calm Calm - N/A   Clear
8:53 AM 41.0 °F - 32.0 °F 70% 30.27 in 10.0 mi Calm Calm - N/A   Clear
9:53 AM 46.9 °F - 34.0 °F 61% 30.25 in 10.0 mi WNW 3.5 mph - N/A   Clear
10:53 AM 52.0 °F - 35.1 °F 53% 30.21 in 10.0 mi Calm Calm - N/A   Clear
11:53 AM 59.0 °F - 37.9 °F 46% 30.17 in 10.0 mi NNW 12.7 mph - N/A   Clear
12:53 PM 63.0 °F - 36.0 °F 37% 30.13 in 10.0 mi NW 13.8 mph - N/A   Clear
1:53 PM 66.0 °F - 33.1 °F 29% 30.09 in 10.0 mi NW 12.7 mph - N/A   Clear
2:53 PM 66.0 °F - 32.0 °F 28% 30.05 in 10.0 mi NNW 15.0 mph - N/A   Clear
3:53 PM 66.0 °F - 30.0 °F 26% 30.03 in 10.0 mi NNW 13.8 mph 24.2 mph N/A   Clear
4:53 PM 64.0 °F - 28.9 °F 27% 30.01 in 10.0 mi NW 17.3 mph 26.5 mph N/A   Clear
5:53 PM 59.0 °F - 30.0 °F 33% 30.00 in 10.0 mi NW 15.0 mph - N/A   Clear
6:53 PM 57.0 °F - 30.9 °F 37% 30.00 in 10.0 mi NW 17.3 mph 24.2 mph N/A   Clear
7:53 PM 57.0 °F - 30.9 °F 37% 30.00 in 10.0 mi WNW 12.7 mph 18.4 mph N/A   Clear
8:53 PM 55.0 °F - 33.1 °F 43% 29.99 in 10.0 mi NNW 12.7 mph - N/A   Clear
9:53 PM 54.0 °F - 33.1 °F 45% 29.99 in 10.0 mi NW 9.2 mph - N/A   Clear
10:53 PM 51.1 °F - 32.0 °F 48% 29.98 in 10.0 mi SSW 5.8 mph - N/A   Clear
11:53 PM 52.0 °F - 32.0 °F 47% 29.98 in 10.0 mi WNW 6.9 mph - N/A   Clear